Flag Weather past 2 weeks in Sochi, Russia

Now
50 °F

Partly sunny.


Feels Like: 46 °F
Forecast: 40 / 57 °F
Wind: 10 mph from Northwest

Location: Adler

Current Time: Nov 28, 2014 at 5:32:05 PM

Latest Report: Nov 28, 2014 at 4:30 PM


Visibility: N/A

Pressure: 30.30 "Hg

Humidity: 62%

Dew point: 37 °F

Location of SochiLocation

Historic Weather in Sochi — Graph

°F

Sochi temperature yesterday

Maximum temperature yesterday: 55 °F (at 12:00 PM)
Minimum temperature yesterday: 43 °F (at 12:00 AM)
Average temperature yesterday: 49 °F

Past Weeks' High & Low Weather Summary

 TemperatureHumidityPressure
High68 °F (Nov 14, 2:00 PM)94% (Nov 17, 8:30 PM)30.30 "Hg (Nov 17, 8:30 PM)
Low37 °F (Nov 26, 8:00 AM)30% (Nov 15, 2:00 PM)29.74 "Hg (Nov 22, 8:00 AM)
Average53 °F69%30.04 "Hg
* Reported Nov 13 4:00 PM — Nov 28 4:30 PM, Sochi, Weather by CustomWeather, © 2014

Note: Actual official high and low records may vary slightly from our data, if they occured in-between our weather recording intervals... More about our weather records

Advertising

Sochi weather history for previous 24 hours

 ConditionsComfort  
Time TempWeatherWind HumidityBarometerVisibility
4:30 PM
Nov 28
50 °FPartly sunny.10 mph62%30.30 "HgN/A
4:00 PM50 °FPartly sunny.8 mph62%30.30 "HgN/A
3:30 PM50 °FPartly sunny.8 mph62%30.30 "HgN/A
3:00 PM50 °FPartly sunny.10 mph58%30.27 "HgN/A
2:30 PM50 °FOvercast.13 mph58%30.27 "HgN/A
2:00 PM52 °FOvercast.8 mph54%30.27 "HgN/A
1:30 PM52 °FOvercast.3 mph62%30.27 "HgN/A
1:00 PM50 °FOvercast.No wind67%30.27 "HgN/A
12:30 PM50 °FOvercast.No wind67%30.27 "HgN/A
12:00 PM48 °FOvercast.3 mph76%30.27 "HgN/A
11:30 AM48 °FMore clouds than sun.6 mph76%30.30 "HgN/A
11:00 AM46 °FMore clouds than sun.6 mph82%30.30 "HgN/A
10:30 AM46 °FMore clouds than sun.8 mph82%30.30 "HgN/A
10:00 AM46 °FMore clouds than sun.No wind82%30.30 "HgN/A
9:30 AM45 °FMore clouds than sun.No wind87%30.30 "HgN/A
9:00 AM45 °FMostly cloudy.1 mph87%30.30 "HgN/A
8:30 AM45 °FSprinkles. Overcast.3 mph81%30.30 "HgN/A
8:00 AM45 °FSprinkles. Overcast.3 mph81%30.27 "HgN/A
7:30 AM45 °FSprinkles. Overcast.6 mph87%30.27 "HgN/A
6:30 AM45 °FSprinkles. Overcast.3 mph87%30.27 "HgN/A
5:30 AM45 °FSprinkles. Overcast.1 mph87%30.24 "HgN/A
5:00 AM45 °FSprinkles. Overcast.1 mph87%30.24 "HgN/A
4:30 AM45 °FSprinkles. Overcast.6 mph87%30.24 "HgN/A
4:00 AM45 °FSprinkles. Overcast.3 mph93%30.24 "HgN/A
3:30 AM46 °FSprinkles. Overcast.3 mph87%30.24 "HgN/A
3:00 AM46 °FSprinkles. Overcast.6 mph82%30.24 "HgN/A
2:30 AM46 °FOvercast.6 mph82%30.24 "HgN/A
2:00 AM46 °FOvercast.6 mph82%30.24 "HgN/A
1:30 AM46 °FSprinkles. Overcast.6 mph87%30.21 "HgN/A
1:00 AM46 °FSprinkles. Mostly cloudy.3 mph87%30.21 "HgN/A
12:30 AM46 °FSprinkles. Mostly cloudy.3 mph87%30.21 "HgN/A
12:00 AM46 °FSprinkles. Mostly cloudy.8 mph87%30.21 "HgN/A
11:30 PM
Nov 27
46 °FSprinkles. Mostly cloudy.6 mph87%30.21 "HgN/A
11:00 PM46 °FSprinkles. Mostly cloudy.8 mph87%30.21 "HgN/A
10:30 PM48 °FSprinkles. Mostly cloudy.8 mph87%30.21 "HgN/A
10:00 PM48 °FSprinkles. Mostly cloudy.10 mph87%30.18 "HgN/A
9:30 PM48 °FSprinkles. Mostly cloudy.10 mph87%30.18 "HgN/A
9:00 PM48 °FSprinkles. Mostly cloudy.13 mph87%30.18 "HgN/A
8:30 PM48 °FSprinkles. Mostly cloudy.15 mph87%30.18 "HgN/A
8:00 PM48 °FSprinkles. Mostly cloudy.8 mph87%30.15 "HgN/A
7:30 PM48 °FSprinkles. Mostly cloudy.6 mph87%30.15 "HgN/A
7:00 PM50 °FSprinkles. Overcast.3 mph82%30.15 "HgN/A
6:30 PM50 °FSprinkles. Overcast.6 mph82%30.15 "HgN/A
6:00 PM50 °FSprinkles. Overcast.6 mph76%30.15 "HgN/A
5:30 PM50 °FSprinkles. Overcast.8 mph76%30.12 "HgN/A
5:00 PM50 °FSprinkles. More clouds than sun.8 mph76%30.12 "HgN/A
Weather by CustomWeather, © 2014

See weather overviewHow to use our weather pages